User: anonymous   Login
Location: Waco, TX
(31.5480°N, 97.1670°W)
Time: 21:27:06
(UTC-05:00)
Language:

ISS - Orbit

View from above orbital plane
View from above orbital plane
View from above satellite
View from above satellite

Ground track
Ground track

The orbit data is extracted from the following two-line orbital elements,

1 25544U 98067A   19147.29546722  .00016717  00000-0  10270-3 0  9084
2 25544  51.6411 104.9856 0007149 339.5502  20.5362 15.51151160 12008
Epoch (UTC): 27 May 2019 07:05:28
Eccentricity: 0.0007149
inclination: 51.6411°
perigee height: 408 km
apogee height: 418 km
right ascension of ascending node: 104.9856°
argument of perigee: 339.5502°
revolutions per day: 15.51151160
mean anomaly at epoch: 20.5362°
orbit number at epoch: 1200

The dashed part of the orbit path shows where the satellite is in the earth's shadow,  

DLR